Location: Gad�tanya
(48.0500°N, 20.8500°E)
Time: 10:19:54
(UTC+00:00)

ATLAS 5 CENTAUR R/B - Pass Details

Date: 05 July 2020
Orbit: 534 x 1124 km, 63.4° (Epoch: 09 August)

Event Time Altitude Azimuth Distance (km) Brightness Sun altitude
Rises 19:22:28 0° 204° (SSW) 2,691 4.6 -6.4°
Reaches altitude 10° 19:24:36 10° 199° (SSW) 1,833 3.7 -6.7°
Maximum altitude 19:28:33 51° 123° (ESE) 749 1.6 -7.1°
Drops below altitude 10° 19:33:00 10° 48° (NE) 2,063 4.2 -7.7°
Sets 19:35:31 0° 44° (NE) 3,071 5.2 -7.9°
